Weather History for Weatherford, OK

Change the Weather History Date:

Saturday, August 17, 2013

  Actual Average (KJWG) Record (KJWG)
Temperature  
Mean Temperature 72 °F -  
Max Temperature 80 °F 93 °F 102 °F (1983)
Min Temperature 64 °F 70 °F 60 °F (1962)
Cooling Degree Days 7    
Growing Degree Days 22 (Base 50)    
Moisture  
Dew Point 63 °F    
Average Humidity 76    
Maximum Humidity 94    
Minimum Humidity 57    
Precipitation  
Precipitation 0.00 in - - ()
Sea Level Pressure  
Sea Level Pressure 30.12 in    
Wind  
Wind Speed 6 mph (SE)    
Max Wind Speed 13 mph    
Max Gust Speed 16 mph    
Visibility 10 miles    
Events      
Averages and records for this station are not official NWS values.
T = Trace of Precipitation, MM = Missing Value Source: NWS Daily Summary

Daily Weather History Graph

Daily Weather History Graph

Search for Another Location

Airport:

Trip Planner

Search our weather history database for the weather conditions in past years. The results will help you decide how hot, cold, wet, or windy it might be!

Date:

Astronomy

Aug. 17, 2013 Rise Set
Actual Time 6:55 AM CDT 8:21 PM CDT
Civil Twilight 6:28 AM CDT 8:47 PM CDT
Nautical Twilight 5:56 AM CDT 9:20 PM CDT
Astronomical Twilight 5:22 AM CDT 9:53 PM CDT
Moon 5:34 PM CDT (8/17) 3:04 AM CDT (8/17)
Length of Visible Light 14h 19m
Length of Day
13h 25m
Waxing Gibbous, 84% of the Moon is Illuminated
Aug 17
Waxing Gibbous
Aug 20
Full
Aug 28
Last Quarter
Sep 5
New
Sep 12
First Quarter

Hourly Weather History & Observations

Time (CDT) Temp. Heat Index Dew Point Humidity Pressure Visibility Wind Dir Wind Speed Gust Speed Precip Events Conditions
12:15 AM 68.0 °F - 64.4 °F 88% 30.14 in 10.0 mi ESE 4.6 mph - N/A   Clear
12:35 AM 68.0 °F - 64.4 °F 88% 30.14 in 10.0 mi ESE 4.6 mph - N/A   Clear
12:55 AM 68.0 °F - 64.4 °F 88% 30.14 in 10.0 mi ESE 4.6 mph - N/A   Clear
1:15 AM 66.2 °F - 64.4 °F 94% 30.14 in 10.0 mi East 4.6 mph - N/A   Clear
1:35 AM 66.2 °F - 64.4 °F 94% 30.13 in 10.0 mi ESE 4.6 mph - N/A   Clear
1:55 AM 66.2 °F - 64.4 °F 94% 30.13 in 10.0 mi SE 4.6 mph - N/A   Clear
2:15 AM 66.2 °F - 64.4 °F 94% 30.13 in 10.0 mi SE 3.5 mph - N/A   Clear
2:35 AM 66.2 °F - 64.4 °F 94% 30.14 in 10.0 mi SE 4.6 mph - N/A   Clear
2:55 AM 66.2 °F - 64.4 °F 94% 30.13 in 10.0 mi SE 6.9 mph - N/A   Clear
3:15 AM 66.2 °F - 64.4 °F 94% 30.13 in 10.0 mi SE 9.2 mph - N/A   Scattered Clouds
3:35 AM 66.2 °F - 62.6 °F 88% 30.13 in 10.0 mi SE 5.8 mph - N/A   Scattered Clouds
3:55 AM 66.2 °F - 62.6 °F 88% 30.13 in 10.0 mi SE 8.1 mph - N/A   Scattered Clouds
4:15 AM 64.4 °F - 62.6 °F 94% 30.13 in 10.0 mi SE 3.5 mph - N/A   Clear
4:35 AM 64.4 °F - 62.6 °F 94% 30.14 in 10.0 mi Calm Calm - N/A   Scattered Clouds
4:55 AM 66.2 °F - 62.6 °F 88% 30.14 in 10.0 mi Calm Calm - N/A   Scattered Clouds
5:15 AM 64.4 °F - 62.6 °F 94% 30.14 in 10.0 mi SSE 3.5 mph - N/A   Clear
5:35 AM 64.4 °F - 62.6 °F 94% 30.14 in 10.0 mi SE 4.6 mph - N/A   Scattered Clouds
5:55 AM 64.4 °F - 62.6 °F 94% 30.13 in 10.0 mi SSE 3.5 mph - N/A   Scattered Clouds
6:15 AM 64.4 °F - 62.6 °F 94% 30.13 in 10.0 mi SSE 3.5 mph - N/A   Scattered Clouds
6:35 AM 64.4 °F - 62.6 °F 94% 30.14 in 10.0 mi SSE 3.5 mph - N/A   Clear
6:55 AM 64.4 °F - 62.6 °F 94% 30.14 in 10.0 mi SE 4.6 mph - N/A   Clear
7:15 AM 64.4 °F - 62.6 °F 94% 30.14 in 10.0 mi SSE 4.6 mph - N/A   Clear
7:35 AM 64.4 °F - 62.6 °F 94% 30.15 in 10.0 mi SSE 3.5 mph - N/A   Clear
7:55 AM 64.4 °F - 62.6 °F 94% 30.15 in 10.0 mi South 4.6 mph - N/A   Scattered Clouds
8:15 AM 64.4 °F - 62.6 °F 94% 30.15 in 10.0 mi SSE 5.8 mph - N/A   Mostly Cloudy
8:35 AM 68.0 °F - 62.6 °F 83% 30.16 in 10.0 mi SSE 8.1 mph - N/A   Mostly Cloudy
8:55 AM 68.0 °F - 62.6 °F 83% 30.17 in 10.0 mi SSE 5.8 mph - N/A   Overcast
9:15 AM 68.0 °F - 62.6 °F 83% 30.17 in 10.0 mi South 8.1 mph - N/A   Scattered Clouds
9:35 AM 69.8 °F - 62.6 °F 78% 30.17 in 10.0 mi South 5.8 mph - N/A   Mostly Cloudy
9:55 AM 69.8 °F - 62.6 °F 78% 30.17 in 10.0 mi South 5.8 mph - N/A   Mostly Cloudy
10:15 AM 71.6 °F - 60.8 °F 69% 30.17 in 10.0 mi South 6.9 mph - N/A   Mostly Cloudy
10:35 AM 73.4 °F - 62.6 °F 69% 30.17 in 10.0 mi SSE 8.1 mph - N/A   Overcast
10:55 AM 73.4 °F - 60.8 °F 65% 30.18 in 10.0 mi SSE 6.9 mph - N/A   Overcast
11:15 AM 71.6 °F - 62.6 °F 73% 30.18 in 10.0 mi SSE 5.8 mph - N/A   Overcast
11:35 AM 71.6 °F - 62.6 °F 73% 30.16 in 10.0 mi SE 8.1 mph - N/A   Overcast
11:55 AM 73.4 °F - 62.6 °F 69% 30.15 in 10.0 mi SSE 8.1 mph - N/A   Scattered Clouds
12:15 PM 73.4 °F - 62.6 °F 69% 30.14 in 10.0 mi ESE 8.1 mph - N/A   Clear
12:35 PM 75.2 °F - 62.6 °F 65% 30.14 in 10.0 mi SE 9.2 mph - N/A   Clear
12:55 PM 75.2 °F - 62.6 °F 65% 30.13 in 10.0 mi SE 8.1 mph - N/A   Mostly Cloudy
1:15 PM 77.0 °F - 62.6 °F 61% 30.13 in 10.0 mi SE 3.5 mph - N/A   Scattered Clouds
1:35 PM 77.0 °F - 62.6 °F 61% 30.12 in 10.0 mi SSE 3.5 mph - N/A   Scattered Clouds
1:55 PM 78.8 °F - 62.6 °F 57% 30.12 in 10.0 mi Calm Calm - N/A   Scattered Clouds
2:15 PM 78.8 °F - 64.4 °F 61% 30.11 in 10.0 mi East 4.6 mph - N/A   Overcast
2:35 PM 78.8 °F - 64.4 °F 61% 30.11 in 10.0 mi SE 6.9 mph - N/A   Overcast
2:55 PM 78.8 °F - 62.6 °F 57% 30.11 in 10.0 mi East 3.5 mph - N/A   Overcast
3:15 PM 78.8 °F - 62.6 °F 57% 30.10 in 10.0 mi SSE 3.5 mph - N/A   Mostly Cloudy
3:35 PM 80.6 °F 82.3 °F 64.4 °F 58% 30.09 in 10.0 mi East 8.1 mph - N/A   Mostly Cloudy
3:55 PM 78.8 °F - 64.4 °F 61% 30.09 in 10.0 mi East 5.8 mph - N/A   Scattered Clouds
4:15 PM 80.6 °F 82.3 °F 64.4 °F 58% 30.08 in 10.0 mi ESE 9.2 mph 16.1 mph N/A   Scattered Clouds
4:35 PM 80.6 °F 82.3 °F 64.4 °F 58% 30.08 in 10.0 mi ESE 9.2 mph - N/A   Scattered Clouds
4:55 PM 80.6 °F 82.3 °F 64.4 °F 58% 30.07 in 10.0 mi East 8.1 mph - N/A   Scattered Clouds
5:15 PM 80.6 °F 82.3 °F 64.4 °F 58% 30.07 in 10.0 mi ESE 10.4 mph - N/A   Scattered Clouds
5:35 PM 80.6 °F 82.3 °F 64.4 °F 58% 30.07 in 10.0 mi ESE 10.4 mph - N/A   Scattered Clouds
5:55 PM 78.8 °F - 64.4 °F 61% 30.07 in 10.0 mi ESE 12.7 mph - N/A   Mostly Cloudy
6:15 PM 78.8 °F - 64.4 °F 61% 30.07 in 10.0 mi ESE 11.5 mph - N/A   Mostly Cloudy
6:35 PM 78.8 °F - 64.4 °F 61% 30.07 in 10.0 mi East 10.4 mph - N/A   Overcast
6:55 PM 78.8 °F - 64.4 °F 61% 30.07 in 10.0 mi ESE 10.4 mph - N/A   Overcast
7:15 PM 78.8 °F - 64.4 °F 61% 30.06 in 10.0 mi ESE 8.1 mph - N/A   Mostly Cloudy
7:35 PM 77.0 °F - 64.4 °F 65% 30.06 in 10.0 mi SE 9.2 mph - N/A   Scattered Clouds
7:55 PM 77.0 °F - 64.4 °F 65% 30.07 in 10.0 mi ESE 4.6 mph - N/A   Clear
8:15 PM 75.2 °F - 64.4 °F 69% 30.07 in 10.0 mi ESE 5.8 mph - N/A   Scattered Clouds
8:35 PM 73.4 °F - 64.4 °F 73% 30.07 in 10.0 mi SE 5.8 mph - N/A   Mostly Cloudy
8:55 PM 73.4 °F - 64.4 °F 73% 30.07 in 10.0 mi SSE 4.6 mph - N/A   Overcast
9:15 PM 73.4 °F - 64.4 °F 73% 30.07 in 10.0 mi SE 5.8 mph - N/A   Overcast
9:35 PM 73.4 °F - 64.4 °F 73% 30.08 in 10.0 mi SE 6.9 mph - N/A   Overcast
9:55 PM 73.4 °F - 64.4 °F 73% 30.09 in 10.0 mi SE 6.9 mph - N/A   Overcast
10:15 PM 71.6 °F - 64.4 °F 78% 30.10 in 10.0 mi SE 6.9 mph - N/A   Mostly Cloudy
10:35 PM 73.4 °F - 64.4 °F 73% 30.10 in 10.0 mi ESE 8.1 mph - N/A   Overcast
10:55 PM 71.6 °F - 64.4 °F 78% 30.10 in 10.0 mi ESE 10.4 mph - N/A   Mostly Cloudy
11:15 PM 71.6 °F - 64.4 °F 78% 30.10 in 10.0 mi ESE 8.1 mph - N/A   Mostly Cloudy
11:35 PM 71.6 °F - 64.4 °F 78% 30.10 in 10.0 mi ESE 9.2 mph - N/A   Scattered Clouds
11:55 PM 69.8 °F - 64.4 °F 83% 30.10 in 10.0 mi ESE 6.9 mph - N/A   Scattered Clouds